Date,TemperatureHighF,TemperatureAvgF,TemperatureLowF,DewpointHighF,DewpointAvgF,DewpointLowF,HumidityHigh,HumidityAvg,HumidityLow,PressureMaxIn,PressureMinIn,WindSpeedMaxMPH,WindSpeedAvgMPH,GustSpeedMaxMPH,PrecipitationSumIn
2013-1-1,15.4,11.4,9.3,3.3,-3.5,-6.8,76,51,38,30.40,30.13,13,6,25,0.00
2013-1-2,16.9,12.3,9.3,0.2,-2.6,-5.6,60,51,42,30.49,30.30,12,6,23,0.01
2013-1-3,16.2,14.4,13.1,-2.3,-3.1,-3.8,49,45,42,30.47,30.35,1,0,1,0.00
2013-1-4,33.8,19.7,11.9,9.9,4.0,-3.2,60,50,35,30.37,30.14,2,0,4,0.00
2013-1-5,28.1,27.0,26.1,-3.7,-6.9,-12.6,26,22,17,30.36,30.26,8,6,17,0.00
2013-1-6,45.7,27.5,17.5,-3.9,-10.0,-16.0,30,20,8,30.32,29.93,8,2,13,0.02
2013-1-8,32.1,29.4,27.3,14.9,10.7,-9.6,54,46,16,30.23,29.67,15,6,30,0.00
2013-1-9,31.3,30.8,30.1,10.5,9.8,9.2,42,41,40,30.25,30.20,10,8,14,0.00
2013-1-10,43.9,35.5,25.1,9.6,3.2,-0.9,48,27,15,29.58,29.37,7,3,9,0.02
2013-1-11,25.1,23.6,22.9,16.8,8.9,4.8,74,53,44,29.37,29.21,6,1,6,0.00
2013-1-12,-7.2,-8.1,-8.9,-15.3,-16.3,-17.2,67,66,66,30.28,30.25,0,0,0,0.00
2013-1-13,5.8,-2.0,-8.9,-4.0,-10.0,-17.0,76,68,62,30.47,30.20,5,1,8,0.00
2013-1-14,7.6,2.6,1.1,-10.8,-13.6,-15.3,47,46,41,30.50,30.27,10,6,18,0.00
2013-1-15,21.4,12.0,0.0,5.5,-6.4,-21.0,51,43,35,30.42,30.28,15,9,33,0.00
2013-1-16,33.2,26.8,18.4,15.0,12.0,4.3,62,53,46,30.38,30.22,15,8,24,0.00
2013-1-17,40.5,28.4,15.6,14.6,6.3,-0.5,65,41,22,30.58,30.22,11,3,18,0.00
2013-1-18,38.2,32.9,29.7,5.7,0.3,-3.6,32,25,19,30.22,30.04,18,8,32,0.00
2013-1-19,35.9,31.7,29.3,0.8,-1.0,-3.9,28,24,18,30.24,29.97,21,8,33,0.00
2013-1-20,37.8,31.7,27.3,5.7,-1.2,-5.0,38,24,18,30.24,30.03,13,7,28,0.00
2013-1-21,34.7,30.7,26.6,6.9,0.6,-6.1,34,27,18,30.20,30.04,17,10,29,0.00
2013-1-22,41.8,37.4,33.1,-2.1,-9.8,-18.5,19,13,7,30.15,29.90,21,12,40,0.00
2013-1-23,52.2,42.6,36.9,5.0,-7.2,-20.6,23,12,6,30.15,29.94,18,8,25,0.00
2013-1-24,44.9,38.9,35.8,25.1,9.8,-4.6,63,34,16,30.02,29.78,19,8,31,0.00
2013-1-25,42.3,37.7,35.2,26.1,23.6,21.3,64,57,48,30.07,29.90,18,9,32,0.00
2013-1-26,45.1,37.3,29.1,28.2,23.0,18.4,84,58,34,29.91,29.59,10,3,17,0.00
2013-1-27,41.9,34.1,25.3,27.5,21.7,13.0,89,62,41,29.74,29.53,12,4,18,0.03
2013-1-28,44.1,29.4,19.7,22.8,15.0,8.9,80,56,26,29.66,29.44,10,2,16,0.00
2013-1-29,19.5,11.9,5.4,14.3,-1.7,-7.6,80,54,35,30.15,29.56,12,6,25,0.00
2013-1-30,22.1,15.1,6.0,15.0,4.7,-6.1,77,63,51,30.11,29.91,22,13,42,0.00
2013-1-31,27.8,24.5,21.1,16.1,13.0,9.8,80,62,48,30.20,29.88,23,15,43,0.00
2013-2-1,29.7,26.1,23.3,20.0,15.0,9.3,78,63,50,30.17,30.03,23,13,40,0.00
2013-2-2,35.3,29.7,24.8,13.4,6.7,0.8,59,39,26,30.35,30.07,24,10,51,0.00
2013-2-3,41.8,34.1,28.5,3.5,-2.7,-12.0,32,21,11,30.17,29.82,14,6,28,0.01
2013-2-4,35.9,30.1,26.9,3.4,0.3,-2.6,33,27,23,29.98,29.84,15,9,35,0.00
2013-2-5,37.2,35.3,33.1,18.1,17.4,16.5,52,48,43,29.85,29.74,6,3,10,0.00
2013-2-6,39.9,33.7,24.7,22.7,16.7,12.6,73,50,38,30.00,29.66,10,4,15,0.00
2013-2-7,36.9,26.3,17.5,12.2,-0.1,-9.7,65,34,14,30.22,29.98,10,4,15,0.00
2013-2-8,39.6,27.2,17.2,14.5,-0.1,-10.1,67,32,17,30.06,29.63,6,1,11,0.00
2013-2-9,26.6,22.1,16.7,19.5,13.7,5.4,80,70,55,29.76,29.48,7,1,15,0.00
2013-2-10,22.1,17.0,10.4,12.6,6.9,1.9,76,64,48,30.10,29.56,6,2,9,0.00
2013-2-11,19.2,9.4,-0.6,11.2,2.5,-7.4,84,73,68,30.29,30.08,4,0,7,0.00
2013-2-13,24.2,18.8,16.9,9.9,5.0,2.7,57,54,49,30.14,30.00,19,13,30,0.00
2013-2-14,21.3,14.5,10.7,12.4,8.0,5.5,80,75,68,30.38,30.18,4,1,6,0.00
2013-2-15,23.2,17.8,9.2,11.7,8.0,3.8,84,66,51,30.47,30.23,16,7,29,0.00
2013-2-16,34.9,28.4,21.4,11.9,7.9,1.6,65,42,28,30.33,29.97,20,12,35,0.00
2013-2-17,42.3,32.6,19.9,13.7,0.8,-8.5,65,28,15,29.98,29.49,17,8,34,0.01
2013-2-18,22.7,17.9,9.0,8.1,0.8,-5.9,64,47,32,30.24,29.61,12,6,21,0.00
2013-2-19,37.2,23.5,8.3,7.4,-3.5,-16.7,58,33,12,30.24,29.69,9,2,18,0.00
2013-2-20,31.9,21.4,15.1,13.4,7.8,3.0,78,57,32,29.81,29.59,5,1,9,0.00
2013-2-21,22.2,15.7,10.0,13.1,9.2,4.1,81,75,66,30.01,29.61,8,1,14,0.00
2013-2-22,26.4,18.3,13.5,14.4,4.1,-2.3,72,54,41,30.05,29.84,16,6,32,0.00
2013-2-23,35.6,23.4,14.0,14.6,5.3,-1.7,61,46,37,29.92,29.60,19,10,40,0.00
2013-2-25,28.2,24.5,23.0,6.8,4.4,1.3,46,42,35,30.02,29.76,10,8,15,0.00
2013-2-26,25.4,20.3,11.7,16.5,11.1,5.3,80,68,42,30.21,29.73,10,2,20,0.00
2013-2-27,23.0,14.8,6.7,6.8,0.5,-10.1,77,54,32,30.43,30.20,13,6,21,0.00
2013-2-28,24.8,18.8,12.6,10.4,2.8,-2.8,64,50,35,30.41,30.30,18,8,30,0.00
2013-3-1,33.5,27.0,19.2,18.7,13.0,6.7,63,55,43,30.41,30.25,15,8,25,0.02
2013-3-2,41.9,34.7,29.1,20.0,17.8,11.2,64,51,33,30.35,29.96,16,8,32,0.05
2013-3-3,40.2,35.9,33.2,22.3,14.6,12.0,64,42,36,29.96,29.56,15,6,26,0.08
2013-3-4,36.3,26.2,14.8,25.2,17.9,-2.5,83,71,45,30.19,29.55,11,5,18,0.03
2013-3-5,24.2,24.0,23.8,-0.3,-1.7,-4.6,34,32,28,30.08,30.08,2,1,4,0.02
2013-3-6,50.2,37.6,24.1,15.7,4.7,-5.4,39,26,15,30.08,29.63,8,3,15,0.09
2013-3-7,51.4,39.0,27.2,19.9,11.6,2.0,56,34,13,29.94,29.60,8,3,14,0.00
2013-3-8,44.2,32.2,25.4,24.3,16.7,6.8,84,54,31,29.93,29.53,6,1,9,0.00
2013-3-9,27.5,25.8,24.1,23.7,21.7,20.0,87,85,79,29.75,29.50,8,1,15,0.00
2013-3-10,33.2,24.9,12.3,18.1,11.9,4.8,76,58,45,30.26,30.00,12,6,31,0.12
2013-3-11,34.7,28.3,23.2,21.3,14.9,7.4,85,58,44,30.10,29.83,24,12,52,0.02
2013-3-12,38.6,27.7,18.0,25.2,18.0,13.7,85,69,43,30.31,30.07,15,4,44,0.10
2013-3-13,46.4,39.1,34.1,20.6,17.8,12.8,55,43,26,30.17,30.02,18,8,50,0.26
2013-3-14,52.9,43.9,38.3,19.2,15.1,6.7,42,32,17,30.19,30.04,15,8,39,0.00
2013-3-15,55.7,48.1,39.5,27.5,18.4,14.5,61,32,22,29.93,29.68,16,6,41,0.00
2013-3-16,44.9,37.4,30.9,27.9,23.9,18.0,75,59,40,29.85,29.63,9,3,25,0.00
2013-3-17,41.5,31.5,19.7,26.1,17.1,6.6,79,57,26,29.81,29.43,13,6,38,0.03
2013-3-18,30.1,23.5,17.0,14.7,8.5,1.5,73,53,37,30.03,29.77,13,7,34,0.01
2013-3-19,36.0,27.8,18.0,8.6,-3.7,-17.6,53,28,11,30.37,29.95,22,8,51,0.00
2013-3-20,46.5,32.6,12.8,21.6,7.1,-12.1,56,36,19,30.34,29.50,20,8,48,0.00
2013-3-21,44.8,32.2,21.9,26.4,16.8,6.1,79,54,31,29.69,29.37,19,8,43,0.02
2013-3-22,24.4,20.8,17.5,19.1,15.4,11.6,81,79,78,29.84,29.74,3,1,9,0.00
2013-3-23,17.3,11.7,3.4,11.6,4.0,-3.8,79,71,60,30.42,29.81,5,1,13,0.00
2013-3-24,16.7,10.2,2.2,5.7,1.7,-4.5,77,68,56,30.38,30.25,9,2,23,0.00
2013-3-25,27.3,16.9,7.9,13.4,3.5,-2.4,74,57,28,30.45,30.25,9,4,22,0.08
2013-3-26,44.9,30.6,13.5,20.6,12.3,-1.7,68,48,28,30.26,29.82,15,5,32,0.21
2013-3-27,46.8,33.3,24.1,23.0,19.7,15.0,85,61,29,30.01,29.86,11,4,25,0.08
2013-3-28,39.5,35.5,33.2,27.0,25.5,24.3,73,67,60,30.12,29.99,4,0,8,0.00
2013-3-29,50.1,38.8,28.7,27.1,23.2,18.7,72,55,29,30.06,29.94,14,5,32,0.00
2013-3-30,49.2,38.8,30.1,28.9,22.9,15.6,86,55,28,30.11,29.86,15,5,38,0.00
2013-3-31,53.9,39.9,26.7,26.9,15.4,5.2,86,43,16,30.06,29.85,14,5,39,0.00
2013-4-1,43.2,32.3,23.3,29.4,22.8,15.8,85,69,47,30.07,29.88,6,1,14,0.00
2013-4-2,35.9,30.9,29.7,31.4,27.6,25.8,90,87,82,29.99,29.90,4,0,7,0.01
2013-4-3,38.8,30.6,23.3,30.8,23.4,16.5,92,76,42,30.17,30.02,5,1,13,0.28
2013-4-4,54.4,44.2,34.9,24.6,19.5,12.1,63,40,20,30.06,29.84,10,5,31,0.00
2013-4-5,35.9,35.4,35.2,26.0,24.7,22.8,68,65,61,29.65,29.53,11,6,39,0.02
2013-4-6,51.6,39.9,32.4,25.0,19.7,15.5,64,45,27,29.88,29.65,10,6,33,0.02
2013-4-9,6.7,4.5,3.5,-1.6,-3.1,-3.6,72,70,68,30.37,30.31,1,0,6,0.00
2013-4-10,26.1,12.4,-2.4,16.5,4.8,-9.9,81,71,60,30.40,29.95,17,2,30,0.14
2013-5-30,41.9,41.0,39.3,29.6,25.9,24.1,68,55,49,29.73,29.47,8,5,14,0.08
2013-5-31,55.9,49.9,44.1,16.9,12.3,7.6,31,22,16,29.85,29.58,24,13,40,0.00
2013-6-1,45.1,42.8,40.8,21.7,16.6,13.7,46,35,28,29.84,29.80,11,7,21,0.00
2013-6-4,49.2,43.7,41.2,45.7,40.9,39.1,92,90,84,29.97,29.82,7,2,14,0.14
2013-6-5,53.2,43.3,38.3,43.3,39.3,36.4,93,86,56,30.00,29.85,5,2,8,0.03
2013-6-6,66.1,56.2,46.1,38.2,34.7,27.7,71,47,27,29.91,29.80,6,2,10,0.00
2013-6-7,72.7,53.3,38.5,47.7,34.2,26.2,85,53,18,29.90,29.44,10,2,13,0.01
2013-6-8,65.0,58.4,45.5,50.3,37.5,29.7,74,46,34,29.76,29.36,13,6,21,0.01
2013-6-9,79.8,61.4,40.5,37.6,30.4,27.8,75,36,16,29.87,29.58,9,5,20,0.00
2013-6-10,86.5,68.4,52.3,36.4,28.5,19.8,50,25,10,29.68,29.45,10,3,14,0.00
2013-6-11,72.3,66.8,63.1,20.5,18.1,16.6,18,15,13,29.57,29.46,14,10,26,0.00
2013-6-12,65.0,58.3,53.2,26.5,19.1,16.0,30,22,17,29.76,29.45,15,4,20,0.00
2013-6-13,84.9,63.9,47.0,45.2,33.1,22.5,63,38,11,29.79,29.55,13,3,22,0.00
2013-6-14,80.3,61.3,47.7,38.2,31.8,21.7,63,36,12,29.74,29.50,8,2,13,0.00
2013-6-15,49.8,44.7,40.1,40.2,35.4,33.2,85,70,57,29.82,29.59,2,0,4,0.00
2013-6-16,54.4,52.8,51.6,32.9,32.0,30.9,46,45,44,29.84,29.77,7,4,11,0.01
2013-6-17,71.1,57.3,43.1,46.6,36.2,26.8,77,47,25,29.97,29.74,8,3,11,0.00
2013-6-18,72.1,55.2,41.5,52.1,40.6,34.5,84,61,27,29.88,29.59,6,2,13,0.00
2013-6-19,84.3,67.7,44.5,41.0,24.6,7.5,80,27,8,29.67,29.34,9,-314,13,0.00
2013-6-20,68.3,53.2,44.6,25.5,16.0,9.3,35,23,14,29.60,29.35,6,2,15,0.00
2013-6-21,82.6,62.1,43.6,34.1,23.7,14.3,53,27,10,29.68,29.45,8,2,15,0.00
2013-6-22,75.6,64.4,50.1,43.6,30.9,17.6,53,30,15,29.62,29.49,9,3,11,0.00
2013-6-23,71.3,58.3,44.2,50.8,30.8,18.6,72,36,21,29.74,29.54,10,3,17,0.00
2013-6-24,77.6,60.8,41.6,38.2,25.0,14.5,71,32,11,29.67,29.44,9,3,17,0.00
2013-6-25,62.3,57.1,54.1,30.1,22.9,19.3,36,27,20,29.59,29.42,7,3,13,0.00
2013-6-27,84.9,71.5,57.5,37.1,33.7,30.8,46,27,15,29.86,29.75,6,2,10,0.00
2013-6-28,85.1,65.3,53.3,55.5,40.7,27.4,92,48,14,29.90,29.74,8,3,14,0.06
2013-6-29,74.2,55.4,46.4,58.8,48.8,43.9,95,80,37,30.02,29.80,9,1,13,0.33
2013-6-30,68.6,55.5,50.2,53.7,47.5,-99.9,89,76,50,30.03,29.77,7,-416,10,0.10
2013-7-1,66.4,53.8,43.9,53.3,45.7,37.3,92,76,47,30.12,29.92,8,-376,10,0.15
2013-7-2,70.9,54.5,41.8,54.0,45.4,39.1,94,75,38,30.09,29.83,13,-252,13,0.04
2013-7-3,77.6,52.6,40.9,53.7,39.0,-99.9,94,69,28,29.94,29.61,8,-47,11,0.33
2013-7-4,78.8,60.2,51.1,54.1,42.3,-99.9,84,55,26,29.84,29.58,10,-59,11,0.02
2013-7-5,77.0,64.0,50.8,54.4,47.3,41.1,93,60,28,29.65,29.48,9,-384,16,0.14
2013-7-6,76.7,60.5,50.1,48.5,45.1,37.5,92,62,27,29.74,29.56,12,-230,18,0.07
2013-7-7,79.4,64.9,54.2,48.8,43.7,37.6,75,49,23,29.73,29.58,9,3,16,0.02
2013-7-8,81.1,64.9,52.0,47.8,41.3,34.3,78,46,19,29.78,29.63,11,5,22,0.03
2013-7-9,83.4,62.0,55.0,42.8,25.4,-99.9,56,33,13,29.91,29.70,11,-19,15,0.00
2013-7-10,80.3,62.8,48.6,50.9,42.0,36.6,65,48,27,29.99,29.69,7,-251,11,0.00
2013-7-11,63.5,56.5,53.9,50.2,44.3,42.6,71,64,50,29.77,29.55,4,-146,7,0.00
2013-7-12,79.2,60.1,52.9,57.6,47.7,41.2,93,68,29,29.81,29.46,9,-35,15,1.95
2013-7-13,54.4,52.8,51.6,52.4,50.7,49.6,93,93,92,29.92,29.70,3,0,10,0.74
2013-7-14,64.0,56.4,49.4,56.3,52.1,47.5,94,86,61,29.96,29.73,5,1,9,0.67
2013-7-15,66.3,56.4,50.4,59.3,52.2,48.2,94,86,69,29.93,29.78,6,1,10,0.07
2013-7-16,71.3,57.0,44.5,51.1,46.2,41.5,93,70,38,29.97,29.80,6,2,10,0.00
2013-7-17,77.9,60.6,46.5,54.2,47.5,41.2,89,65,36,29.97,29.75,6,2,13,0.00
2013-7-18,80.9,53.6,52.3,53.4,25.3,-99.9,92,55,31,29.99,29.62,8,3,15,0.25
2013-7-19,71.6,59.7,51.4,53.9,49.9,42.3,89,72,48,29.97,29.70,7,2,16,0.00
2013-7-20,79.2,60.2,47.0,51.4,44.3,38.3,83,59,27,29.83,29.61,7,2,10,0.00
2013-7-21,82.2,64.4,49.1,50.6,36.2,22.7,82,40,13,29.72,29.53,13,3,14,0.00
2013-7-22,84.0,67.4,55.0,47.1,28.7,-99.9,58,27,8,29.76,29.52,11,4,18,0.00
2013-7-23,83.8,66.6,53.6,52.0,33.4,13.8,81,34,10,29.79,29.55,9,3,10,0.00
2013-7-24,72.7,58.3,51.3,58.1,49.7,46.4,87,74,52,29.97,29.70,7,-3,10,0.11
2013-7-25,61.3,54.8,49.9,52.7,48.1,44.0,91,78,58,30.03,29.77,10,-2,17,0.25
2013-7-26,70.9,56.1,44.3,51.3,44.7,39.1,93,69,34,30.08,29.82,6,1,11,0.01
2013-7-27,73.9,57.8,49.8,52.8,44.2,35.4,92,63,28,29.88,29.67,8,2,13,0.19
2013-7-28,64.7,55.3,49.1,55.4,50.4,45.4,94,84,50,29.73,29.59,5,1,9,0.07
2013-7-29,68.6,58.7,53.5,49.6,44.6,41.5,76,60,42,29.86,29.60,8,4,17,0.00
2013-7-30,76.5,61.4,49.9,45.0,41.6,37.4,76,51,25,29.98,29.83,12,4,17,0.00
2013-7-31,78.6,62.3,49.5,47.5,42.4,35.0,80,51,23,30.05,29.84,6,1,11,0.00
2013-8-1,78.8,61.1,48.2,48.0,42.5,35.8,81,54,24,29.89,29.57,8,2,14,0.00
2013-8-2,80.3,66.9,57.0,46.8,40.8,32.5,59,41,18,29.73,29.55,12,5,17,0.00
2013-8-3,75.1,61.9,48.9,56.6,44.8,38.6,91,57,28,29.92,29.65,7,2,15,0.07
2013-8-4,78.3,62.3,48.8,49.4,41.8,32.5,89,50,22,29.89,29.70,9,3,14,0.00
2013-8-5,76.3,61.8,53.8,51.3,42.4,36.6,88,51,27,29.86,29.66,8,4,13,0.06
2013-8-6,79.0,62.9,55.3,45.4,39.3,30.7,63,43,18,29.78,29.57,9,5,14,0.00
2013-8-7,66.4,56.4,48.0,47.0,40.7,34.4,74,56,34,29.82,29.66,5,1,10,0.00
2013-8-8,67.6,52.0,43.6,52.0,42.8,34.0,92,72,52,30.04,29.77,10,2,15,0.12
2013-8-9,68.8,49.7,42.6,52.1,43.8,38.6,93,81,42,30.08,29.85,6,1,10,0.18
2013-8-10,76.1,57.2,41.5,49.1,38.7,24.5,86,55,15,30.09,29.78,10,2,14,0.00
2013-8-11,68.4,57.4,49.6,47.4,40.7,34.6,74,55,36,29.96,29.75,6,1,11,0.00
2013-8-12,70.3,55.0,46.1,49.8,42.4,37.0,93,65,35,30.00,29.85,10,2,14,0.80
2013-8-13,63.1,51.5,44.9,51.5,45.6,40.1,93,81,55,30.12,29.86,7,2,15,0.21
2013-8-14,71.3,54.5,42.5,47.7,38.0,-99.9,85,58,25,30.08,29.86,17,3,17,0.00
2013-8-15,76.1,57.0,45.4,43.0,33.9,26.4,68,45,17,29.94,29.77,11,4,16,0.00
2013-8-16,80.1,60.5,45.8,45.9,35.8,24.8,68,44,14,30.02,29.78,8,2,17,0.00
2013-8-17,82.8,64.1,48.5,40.3,32.1,-99.9,63,34,13,29.88,29.71,9,3,13,0.00
2013-8-18,83.2,65.2,54.2,47.4,36.5,28.0,65,36,17,29.83,29.61,8,4,17,0.00
2013-8-19,81.4,66.7,55.1,43.1,37.7,33.2,54,36,20,29.83,29.65,8,2,13,0.00
2013-8-20,84.9,68.0,55.7,42.0,35.7,30.3,48,32,15,29.74,29.57,8,3,14,0.00
2013-8-21,78.6,64.8,55.3,51.5,41.9,36.0,67,46,24,29.86,29.58,9,2,17,0.00
2013-8-22,72.1,59.0,49.9,53.6,46.5,41.6,76,64,44,29.94,29.77,6,1,11,0.12
2013-9-9,54.2,52.4,51.1,51.0,49.5,48.9,92,90,88,29.78,29.67,2,1,6,0.75
2013-9-10,53.5,51.4,50.5,51.6,49.6,48.5,94,94,92,29.92,29.67,3,0,6,0.33
2013-9-11,54.2,52.4,51.0,52.8,51.0,49.3,95,95,94,29.96,29.88,3,1,6,1.74
2013-9-12,56.0,51.8,49.5,54.6,50.3,48.1,95,95,94,30.02,29.92,3,1,7,1.68
2013-9-13,60.5,55.4,47.6,55.6,51.1,44.5,89,86,81,29.73,29.62,4,1,7,0.21
2013-9-14,60.1,50.7,44.6,52.1,46.3,42.3,93,85,60,29.80,29.65,6,1,8,0.09
2013-9-15,50.5,47.9,46.0,49.0,46.0,43.5,95,93,91,30.05,29.76,4,0,7,1.07
2013-9-16,48.9,44.0,41.8,47.0,42.2,39.9,95,93,93,30.06,29.98,1,0,4,0.00
2013-9-19,54.5,48.0,41.1,42.6,39.5,36.0,85,72,61,30.03,29.79,6,2,8,0.00
2013-9-20,63.4,45.9,31.6,43.0,34.0,20.3,92,68,20,30.09,29.83,8,2,14,0.00
2013-9-21,70.4,54.9,40.1,47.0,33.9,24.4,69,47,26,29.83,29.52,11,3,16,0.00
2013-9-22,62.6,50.5,40.5,46.3,38.3,31.2,90,64,42,29.58,29.30,11,3,18,0.17
2013-9-23,46.8,42.1,38.5,37.5,31.3,26.2,89,67,49,29.96,29.28,22,10,33,0.11
2013-9-24,65.3,51.0,42.8,34.2,24.1,9.7,55,38,15,29.98,29.55,13,5,23,0.00
2013-9-25,70.6,57.7,47.3,29.7,20.1,10.4,45,24,12,29.63,29.15,10,3,16,0.00
2013-9-26,58.4,47.7,36.6,41.5,34.6,20.5,87,63,29,29.66,29.21,5,1,8,0.00
2013-9-27,42.1,38.7,31.9,39.4,35.4,25.7,92,88,76,29.83,29.50,12,1,24,0.27
2013-9-28,44.6,43.0,41.2,24.9,22.3,20.7,50,44,39,30.10,30.00,8,4,10,0.00
2013-9-29,59.6,49.0,41.2,22.3,16.3,11.3,43,27,19,30.00,29.57,20,6,39,0.00
2013-9-30,55.9,52.2,51.1,26.4,19.5,17.0,32,27,25,29.68,29.57,16,8,31,0.00
2013-10-1,62.4,51.1,38.9,40.9,31.7,19.0,77,49,28,29.88,29.60,7,2,11,0.00
2013-10-2,66.1,51.5,39.8,36.4,28.8,19.5,76,45,18,29.84,29.62,7,2,14,0.00
2013-10-3,60.9,45.3,35.9,39.1,30.6,21.0,88,60,26,29.63,29.43,6,2,9,0.08
2013-10-4,40.6,30.3,23.2,37.3,24.7,12.9,89,79,64,30.22,29.49,12,4,21,0.25
2013-10-5,38.3,29.4,23.0,15.9,13.6,11.3,69,53,35,30.31,30.14,17,10,29,0.02
2013-10-6,46.5,40.5,34.0,24.5,17.6,10.5,43,39,35,30.26,30.00,12,8,23,0.05
2013-10-7,65.2,52.4,46.1,26.7,16.3,5.7,38,25,11,30.00,29.66,10,5,17,0.00
2013-10-8,65.2,53.2,41.9,28.5,19.7,11.9,54,28,17,29.68,29.44,11,4,17,0.00
2013-10-9,56.2,44.8,35.9,36.3,29.7,21.6,82,57,35,29.86,29.49,7,1,9,0.00
2013-10-10,50.7,40.5,33.1,39.3,30.4,21.0,88,68,47,29.74,29.27,22,4,28,0.00
2013-10-11,43.2,38.1,33.7,29.3,25.3,22.4,80,60,49,29.95,29.27,24,11,51,0.00
2013-10-12,47.6,36.0,28.4,33.2,24.4,17.7,85,65,31,30.14,29.92,9,2,14,0.01
2013-10-15,30.9,28.1,25.7,24.4,22.6,21.3,83,80,74,30.24,30.14,4,1,9,0.01
2013-10-16,39.2,31.7,24.5,21.5,17.4,13.9,85,57,39,30.17,29.96,12,6,22,0.02
2013-10-17,42.9,34.5,28.1,26.5,18.3,11.1,85,54,28,30.05,29.86,14,4,23,0.00
2013-10-18,31.5,27.3,22.5,24.7,16.1,-99.9,87,66,46,30.20,29.89,15,5,33,0.00
2013-10-19,43.3,36.6,30.1,20.4,15.2,12.3,49,41,30,30.11,29.77,16,10,29,0.12
2013-10-20,41.2,35.3,25.1,30.2,21.9,15.4,85,61,38,30.08,29.73,9,3,20,0.04
2013-10-21,40.9,29.7,23.6,21.2,19.6,17.6,86,68,41,30.23,30.06,10,3,21,0.03
2013-10-22,51.7,46.2,40.2,25.3,22.9,20.7,53,40,30,30.11,29.91,10,5,17,0.00
2013-10-23,55.1,44.2,30.6,29.6,22.8,18.4,71,44,26,30.11,29.88,8,3,14,0.00
2013-10-24,43.5,32.2,28.4,26.7,22.8,21.6,77,68,48,30.19,30.06,6,1,10,0.00
2013-10-25,57.0,44.9,31.8,33.4,22.9,15.7,65,44,22,30.15,29.87,8,2,13,0.00
2013-10-26,50.4,37.6,27.8,30.3,23.9,15.9,79,60,34,30.31,29.96,6,1,10,0.00
2013-10-27,52.8,44.7,35.9,21.8,18.1,15.2,50,35,24,30.00,29.67,11,5,29,0.00
2013-10-28,35.6,31.0,27.8,27.2,22.8,18.6,84,72,51,29.94,29.72,4,0,10,0.00
2013-10-29,47.4,36.1,22.9,29.2,24.5,12.2,90,67,29,30.01,29.73,9,2,23,0.00
2013-10-30,37.5,31.1,27.5,28.1,20.4,13.4,90,66,48,29.87,29.59,11,6,32,0.01
2013-10-31,32.8,29.3,25.7,21.0,15.9,11.3,71,57,45,29.97,29.72,22,11,46,0.00
2013-11-1,35.2,32.1,30.0,23.3,18.3,14.5,73,57,43,30.21,29.87,14,7,34,0.01
2013-11-2,51.4,42.7,31.6,16.7,6.5,-7.6,53,25,9,30.17,29.46,13,7,33,0.05
2013-11-3,49.4,42.4,25.4,25.8,9.6,-6.6,73,29,10,29.67,29.31,14,5,30,0.02
2013-11-4,31.0,26.1,20.2,18.3,11.0,0.7,73,53,35,29.97,29.63,12,3,22,0.00
2013-11-5,26.0,20.8,17.8,14.3,1.1,-99.9,75,50,27,30.27,29.86,17,6,25,0.00
2013-11-6,31.5,26.4,18.1,15.2,8.5,-3.4,54,46,36,30.37,30.14,23,12,40,0.00
2013-11-7,47.3,38.0,30.3,17.5,15.2,12.5,53,40,27,30.37,29.82,13,5,18,0.00
2013-11-8,48.8,43.0,36.2,15.3,11.7,5.0,40,28,21,29.92,29.52,27,9,42,0.00
2013-11-9,51.4,42.5,34.7,22.0,14.3,11.3,47,32,23,30.11,29.85,12,5,21,0.00
2013-11-10,52.0,43.9,38.0,17.9,14.0,10.3,43,30,21,30.15,29.94,9,4,14,0.00
2013-11-11,51.3,42.7,26.1,22.4,15.4,12.6,83,34,23,30.44,30.00,16,5,28,0.00
2013-11-12,47.3,35.2,23.9,23.9,18.3,1.5,83,55,17,30.70,30.18,7,2,13,0.00
2013-11-13,43.5,41.2,39.5,6.2,3.7,0.5,23,21,17,30.27,30.17,8,5,16,0.00
2013-11-14,37.5,36.7,35.0,10.5,6.5,3.5,33,28,26,29.81,29.63,8,4,14,0.00
2013-11-15,46.7,36.8,29.7,25.6,10.7,-3.2,74,37,18,29.63,29.33,10,5,15,0.00
2013-11-16,38.0,30.7,25.7,24.8,15.0,-99.9,85,57,37,29.44,29.19,19,10,38,0.00
2013-11-17,33.5,27.9,21.0,20.0,16.8,13.3,84,64,44,30.08,29.44,27,11,51,0.00
2013-11-18,40.9,33.8,31.9,18.8,13.0,5.5,58,43,23,30.15,29.95,18,12,37,0.00
2013-11-19,44.3,39.0,35.0,27.2,20.7,8.7,71,49,33,29.90,29.60,12,6,35,0.00
2013-11-20,39.5,34.5,28.7,26.3,23.1,19.2,82,64,48,29.87,29.63,8,3,11,0.03
2013-11-21,28.5,13.4,4.5,21.9,6.7,-2.8,82,74,64,30.73,29.86,3,1,7,0.00
2013-11-22,22.1,15.5,12.9,15.6,9.9,7.9,82,78,68,30.78,30.55,1,0,2,0.00
2013-11-23,27.9,21.7,14.9,18.6,15.3,10.1,88,77,60,30.60,30.31,5,0,7,0.00
2013-11-24,38.5,30.0,19.4,31.7,24.9,16.2,91,82,64,30.31,29.87,5,1,10,0.08
2013-11-25,33.8,27.6,18.4,20.1,16.5,12.1,77,63,50,30.39,29.90,2,0,7,0.00
2013-11-26,36.2,26.7,17.8,16.5,13.4,10.6,78,58,41,30.53,30.22,7,2,15,0.00
2013-11-27,44.2,35.4,27.3,15.9,11.1,5.5,55,37,23,30.22,29.99,12,6,21,0.04
2013-11-28,41.5,30.5,22.5,21.9,14.5,10.0,65,52,35,30.23,30.00,6,1,11,0.00
2013-11-29,41.5,36.5,32.5,15.2,12.9,10.2,46,38,30,30.12,29.96,14,6,28,0.00
2013-11-30,39.3,34.1,31.3,15.3,9.2,3.5,49,36,24,30.16,30.06,12,6,22,0.00
2013-12-1,35.9,32.4,29.0,23.2,15.5,9.4,70,50,42,30.10,29.67,26,12,56,0.00
2013-12-2,37.8,34.6,31.8,23.8,20.4,15.3,72,56,41,29.78,29.49,27,18,49,0.00
2013-12-3,33.7,26.4,5.4,28.2,18.6,-2.0,81,72,58,29.68,29.38,10,1,16,0.00
2013-12-4,5.2,0.6,-5.4,-2.2,-15.3,-99.9,77,63,63,30.34,29.55,5,1,8,0.00